TGM annuale;;;;;;;;;;;;;;;;TGM annuale;;;;;;;;;;;;;;;;TGM annuale;;;;;;;;;;;;;;
Tratta nr.20 SR69, Km 62.350, Arezzo(AR) (flussi ascendente/discendente);;;;;;;;;;;;;;;;Tratta nr.20 SR69, Km 62.350, Arezzo(AR) (flusso ascendente);;;;;;;;;;;;;;;;Tratta nr.20 SR69, Km 62.350, Arezzo(AR) (flusso discendente);;;;;;;;;;;;;;
Anno;01 Motocicli;02 Auto e monovolume;03 Auto e monovolume con rimorchio;04 Furgoncini e camioncini;05 Camion medi;06 Camion grandi;07 Autotreni;08 Autoarticolati;09 Autobus;10 Veicoli non classificati;Totale;Feriali;Festivi;Prefestivi;;Anno;01 Motocicli;02 Auto e monovolume;03 Auto e monovolume con rimorchio;04 Furgoncini e camioncini;05 Camion medi;06 Camion grandi;07 Autotreni;08 Autoarticolati;09 Autobus;10 Veicoli non classificati;Totale;Feriali;Festivi;Prefestivi;;Anno;01 Motocicli;02 Auto e monovolume;03 Auto e monovolume con rimorchio;04 Furgoncini e camioncini;05 Camion medi;06 Camion grandi;07 Autotreni;08 Autoarticolati;09 Autobus;10 Veicoli non classificati;Totale;Feriali;Festivi;Prefestivi
2019;128;7061;4;381;39;36;79;15;76;0;7820;9056;5077;6603;;2019;67;3757;2;203;20;22;34;9;40;0;4155;4784;2693;3611;;2019;61;3304;2;178;19;14;45;6;36;0;3666;4272;2384;2992
;;;;;;;;;;;;;;;;;;;;;;;;;;;;;;;;;;;;;;;;;;;;;;
Tabella flussi 2019;;;;;;;;;;;;;;;;Tabella flussi 2019;;;;;;;;;;;;;;;;Tabella flussi 2019;;;;;;;;;;;;;;
Tratta nr.20 SR69, Km 62.350, Arezzo(AR) (flussi ascendente/discendente);;;;;;;;;;;;;;;;Tratta nr.20 SR69, Km 62.350, Arezzo(AR) (flusso ascendente);;;;;;;;;;;;;;;;Tratta nr.20 SR69, Km 62.350, Arezzo(AR) (flusso discendente);;;;;;;;;;;;;;
;Traffico Totale;;;;;;;;;;;Traffico Med.Orario 06:00 - 20:00;Traffico Ora di punta;;;;Traffico Totale;;;;;;;;;;;Traffico Med.Orario 06:00 - 20:00;Traffico Ora di punta;;;;Traffico Totale;;;;;;;;;;;Traffico Med.Orario 06:00 - 20:00;Traffico Ora di punta;
Giorno;01 Motocicli;02 Auto e monovolume;03 Auto e monovolume con rimorchio;04 Furgoncini e camioncini;05 Camion medi;06 Camion grandi;07 Autotreni;08 Autoarticolati;09 Autobus;10 Veicoli non classificati;Totale;Totale;Ora di punta;Flusso totale ora di punta;;Giorno;01 Motocicli;02 Auto e monovolume;03 Auto e monovolume con rimorchio;04 Furgoncini e camioncini;05 Camion medi;06 Camion grandi;07 Autotreni;08 Autoarticolati;09 Autobus;10 Veicoli non classificati;Totale;Totale;Ora di punta;Flusso totale ora di punta;;Giorno;01 Motocicli;02 Auto e monovolume;03 Auto e monovolume con rimorchio;04 Furgoncini e camioncini;05 Camion medi;06 Camion grandi;07 Autotreni;08 Autoarticolati;09 Autobus;10 Veicoli non classificati;Totale;Totale;Ora di punta;Flusso totale ora di punta
01/01/2019;33;5216;0;83;8;0;45;1;30;0;5416;270;17;470;;01/01/2019;20;2659;0;40;2;0;16;1;16;0;2754;146;16;260;;01/01/2019;13;2557;0;43;6;0;29;0;14;0;2662;124;18;229
02/01/2019;42;7706;4;394;59;30;78;16;108;0;8437;543;17;798;;02/01/2019;18;3986;2;203;31;17;36;11;56;0;4360;287;17;390;;02/01/2019;24;3720;2;191;28;13;42;5;52;0;4077;256;17;408
03/01/2019;44;8052;6;429;38;43;85;27;102;0;8826;563;17;798;;03/01/2019;18;4225;2;223;20;21;36;16;50;0;4611;300;17;405;;03/01/2019;26;3827;4;206;18;22;49;11;52;0;4215;263;17;393
04/01/2019;39;8330;3;448;53;40;110;12;108;0;9143;580;17;837;;04/01/2019;19;4325;1;228;30;22;45;8;57;0;4735;304;17;417;;04/01/2019;20;4005;2;220;23;18;65;4;51;0;4408;276;17;420
05/01/2019;50;7730;4;248;24;5;94;7;82;0;8244;490;11;685;;05/01/2019;28;4049;2;122;11;3;37;5;44;0;4301;260;10;374;;05/01/2019;22;3681;2;126;13;2;57;2;38;0;3943;230;18;340
06/01/2019;36;6061;0;107;7;1;67;0;30;0;6309;362;16;606;;06/01/2019;10;3063;0;48;5;0;25;0;17;0;3168;192;16;385;;06/01/2019;26;2998;0;59;2;1;42;0;13;0;3141;170;19;301
07/01/2019;27;8273;2;473;62;40;116;11;103;0;9107;591;17;834;;07/01/2019;16;4406;1;246;32;21;42;7;50;0;4821;318;8;448;;07/01/2019;11;3867;1;227;30;19;74;4;53;0;4286;273;17;406
08/01/2019;28;8155;3;473;73;33;112;17;98;0;8992;585;17;763;;08/01/2019;10;4352;2;251;37;20;50;12;51;0;4785;317;8;498;;08/01/2019;18;3803;1;222;36;13;62;5;47;0;4207;268;17;356
09/01/2019;24;8462;6;528;64;39;85;28;102;0;9338;606;17;855;;09/01/2019;8;4496;2;287;34;26;31;17;55;0;4956;328;8;497;;09/01/2019;16;3966;4;241;30;13;54;11;47;0;4382;278;18;394
10/01/2019;42;8620;6;557;55;34;100;24;95;0;9533;612;17;833;;10/01/2019;19;4562;4;293;28;18;41;14;52;0;5031;329;7;485;;10/01/2019;23;4058;2;264;27;16;59;10;43;0;4502;283;18;403
11/01/2019;18;8411;8;518;71;31;90;19;103;0;9269;587;17;855;;11/01/2019;11;4501;4;284;37;19;40;12;55;0;4963;319;17;455;;11/01/2019;7;3910;4;234;34;12;50;7;48;0;4306;268;17;400
12/01/2019;46;8304;10;305;20;6;71;3;100;0;8865;540;17;715;;12/01/2019;26;4346;5;158;7;3;28;2;53;0;4628;287;15;389;;12/01/2019;20;3958;5;147;13;3;43;1;47;0;4237;253;12;363
13/01/2019;29;6178;4;139;4;2;68;1;32;0;6457;376;17;566;;13/01/2019;16;3116;1;68;4;1;25;0;16;0;3247;198;15;332;;13/01/2019;13;3062;3;71;0;1;43;1;16;0;3210;178;17;290
14/01/2019;50;8457;6;537;64;38;101;28;111;0;9392;603;17;826;;14/01/2019;27;4415;4;284;30;20;54;19;54;0;4907;321;8;485;;14/01/2019;23;4042;2;253;34;18;47;9;57;0;4485;282;18;406
15/01/2019;50;8540;1;489;52;30;110;28;97;0;9397;609;17;897;;15/01/2019;23;4539;0;263;31;17;42;21;50;0;4986;327;7;475;;15/01/2019;27;4001;1;226;21;13;68;7;47;0;4411;282;17;435
16/01/2019;43;8499;1;582;60;43;94;28;109;0;9459;610;17;854;;16/01/2019;24;4477;0;319;27;25;48;18;55;0;4993;327;8;472;;16/01/2019;19;4022;1;263;33;18;46;10;54;0;4466;283;18;399
17/01/2019;22;8413;6;552;65;40;98;26;97;0;9319;600;7;769;;17/01/2019;11;4455;3;291;35;25;45;17;52;0;4934;324;7;472;;17/01/2019;11;3958;3;261;30;15;53;9;45;0;4385;276;18;378
18/01/2019;38;8701;8;518;69;33;121;15;110;0;9613;607;17;820;;18/01/2019;19;4638;4;264;30;22;56;12;58;0;5103;327;7;476;;18/01/2019;19;4063;4;254;39;11;65;3;52;0;4510;280;18;377
19/01/2019;38;7985;9;290;11;5;103;7;90;0;8538;513;11;675;;19/01/2019;22;4239;5;146;6;4;38;5;47;0;4512;278;17;373;;19/01/2019;16;3746;4;144;5;1;65;2;43;0;4026;235;12;372
20/01/2019;43;6072;0;120;2;1;68;1;28;0;6335;362;17;549;;20/01/2019;18;3091;0;59;0;0;34;0;15;0;3217;193;15;317;;20/01/2019;25;2981;0;61;2;1;34;1;13;0;3118;169;12;280
21/01/2019;32;8369;3;550;59;38;113;21;106;0;9291;598;7;837;;21/01/2019;16;4368;2;277;28;21;51;10;54;0;4827;316;7;497;;21/01/2019;16;4001;1;273;31;17;62;11;52;0;4464;282;18;377
22/01/2019;27;6952;2;546;49;35;105;29;95;0;7840;514;17;811;;22/01/2019;14;3724;1;294;25;18;52;20;49;0;4197;278;8;413;;22/01/2019;13;3228;1;252;24;17;53;9;46;0;3643;236;17;398
23/01/2019;9;7586;2;501;39;36;98;16;94;0;8381;533;17;749;;23/01/2019;7;3958;1;244;20;20;35;9;48;0;4342;282;17;428;;23/01/2019;2;3628;1;257;19;16;63;7;46;0;4039;251;18;400
24/01/2019;36;8629;3;529;67;39;97;23;96;0;9519;609;17;853;;24/01/2019;18;4622;2;276;29;22;36;16;49;0;5070;330;8;478;;24/01/2019;18;4007;1;253;38;17;61;7;47;0;4449;279;17;381
25/01/2019;42;9162;7;547;76;46;118;15;104;0;10117;633;17;853;;25/01/2019;22;4928;4;295;39;29;52;12;54;0;5435;343;7;502;;25/01/2019;20;4234;3;252;37;17;66;3;50;0;4682;290;17;403
26/01/2019;66;8185;4;248;21;5;99;7;92;0;8727;519;17;661;;26/01/2019;35;4278;1;132;13;1;28;5;48;0;4541;279;17;366;;26/01/2019;31;3907;3;116;8;4;71;2;44;0;4186;241;12;358
27/01/2019;42;6013;1;121;9;1;57;4;25;0;6273;364;17;586;;27/01/2019;14;3045;1;65;4;0;22;1;14;0;3166;194;17;350;;27/01/2019;28;2968;0;56;5;1;35;3;11;0;3107;170;12;289
28/01/2019;27;8209;2;437;44;41;118;16;94;0;8988;583;18;743;;28/01/2019;15;4304;1;222;21;24;48;8;52;0;4695;308;7;451;;28/01/2019;12;3905;1;215;23;17;70;8;42;0;4293;275;18;413
29/01/2019;42;8386;1;492;49;45;113;21;109;0;9258;597;17;807;;29/01/2019;22;4423;0;256;25;23;51;14;54;0;4868;319;7;448;;29/01/2019;20;3963;1;236;24;22;62;7;55;0;4390;278;18;383
30/01/2019;24;7579;1;529;66;46;111;26;100;0;8482;548;7;747;;30/01/2019;12;3985;1;278;37;25;46;16;54;0;4454;291;7;470;;30/01/2019;12;3594;0;251;29;21;65;10;46;0;4028;257;17;344
31/01/2019;17;6950;2;401;50;28;99;22;91;0;7660;493;7;726;;31/01/2019;7;3683;1;217;28;17;41;12;46;0;4052;264;7;442;;31/01/2019;10;3267;1;184;22;11;58;10;45;0;3608;229;18;318
01/02/2019;21;8776;5;548;61;57;103;12;101;0;9684;611;8;780;;01/02/2019;11;4663;4;308;30;33;44;6;52;0;5151;329;8;500;;01/02/2019;10;4113;1;240;31;24;59;6;49;0;4533;282;18;372
02/02/2019;22;7867;2;236;11;8;63;2;104;0;8315;500;11;671;;02/02/2019;9;4163;1;117;6;5;30;1;53;0;4385;268;10;367;;02/02/2019;13;3704;1;119;5;3;33;1;51;0;3930;232;12;338
03/02/2019;28;6286;0;118;3;1;41;0;29;0;6506;380;17;595;;03/02/2019;14;3183;0;59;2;0;18;0;15;0;3291;202;15;330;;03/02/2019;14;3103;0;59;1;1;23;0;14;0;3215;178;19;307
04/02/2019;37;8428;3;470;40;59;98;20;100;0;9255;598;18;789;;04/02/2019;15;4494;1;256;22;35;38;11;50;0;4922;323;7;504;;04/02/2019;22;3934;2;214;18;24;60;9;50;0;4333;275;18;378
05/02/2019;44;8617;5;528;67;50;78;20;100;0;9509;615;17;862;;05/02/2019;24;4517;3;267;33;36;35;12;50;0;4977;327;8;474;;05/02/2019;20;4100;2;261;34;14;43;8;50;0;4532;287;17;395
06/02/2019;59;8467;2;552;48;39;91;22;110;0;9390;597;17;871;;06/02/2019;20;4449;1;298;25;28;39;17;55;0;4932;320;17;481;;06/02/2019;39;4018;1;254;23;11;52;5;55;0;4458;278;17;390
07/02/2019;53;8381;4;542;50;60;109;20;97;0;9316;594;17;843;;07/02/2019;23;4371;2;284;32;41;47;11;53;0;4864;316;17;475;;07/02/2019;30;4010;2;258;18;19;62;9;44;0;4452;278;18;385
08/02/2019;53;8870;6;559;52;44;98;25;102;0;9809;617;17;844;;08/02/2019;24;4704;3;296;27;29;34;21;54;0;5192;331;8;478;;08/02/2019;29;4166;3;263;25;15;64;4;48;0;4617;286;19;407
09/02/2019;80;8072;9;278;10;5;83;6;91;0;8634;515;12;707;;09/02/2019;48;4159;7;147;2;3;34;5;48;0;4453;272;16;365;;09/02/2019;32;3913;2;131;8;2;49;1;43;0;4181;243;12;365
10/02/2019;28;5953;6;117;3;1;54;1;29;0;6192;360;17;567;;10/02/2019;13;2976;1;62;1;1;23;1;16;0;3094;190;17;300;;10/02/2019;15;2977;5;55;2;0;31;0;13;0;3098;170;12;279
11/02/2019;41;8086;1;518;54;45;105;14;102;0;8966;579;17;799;;11/02/2019;25;4204;1;271;24;28;46;7;53;0;4659;305;17;449;;11/02/2019;16;3882;0;247;30;17;59;7;49;0;4307;273;18;369
12/02/2019;55;8438;0;535;53;36;111;22;100;0;9350;604;17;893;;12/02/2019;28;4376;0;285;28;22;50;13;55;0;4857;320;17;470;;12/02/2019;27;4062;0;250;25;14;61;9;45;0;4493;284;17;423
13/02/2019;59;8633;2;520;82;41;89;24;106;0;9556;608;17;871;;13/02/2019;33;4539;2;275;45;22;43;18;58;0;5035;328;17;487;;13/02/2019;26;4094;0;245;37;19;46;6;48;0;4521;281;18;395
14/02/2019;52;8955;5;507;73;49;97;31;103;0;9872;627;18;851;;14/02/2019;25;4695;3;280;43;30;43;19;55;0;5193;338;8;487;;14/02/2019;27;4260;2;227;30;19;54;12;48;0;4679;289;18;416
15/02/2019;81;9124;4;526;65;43;138;28;92;0;10101;633;18;860;;15/02/2019;44;4831;3;278;35;22;48;19;46;0;5326;339;8;482;;15/02/2019;37;4293;1;248;30;21;90;9;46;0;4775;294;18;426
16/02/2019;135;8013;11;306;16;8;94;7;97;0;8687;521;17;671;;16/02/2019;66;4185;3;151;7;5;33;3;56;0;4509;277;17;365;;16/02/2019;69;3828;8;155;9;3;61;4;41;0;4178;244;11;329
17/02/2019;80;6086;5;121;5;0;70;3;22;0;6392;376;12;532;;17/02/2019;45;3079;3;69;3;0;26;0;10;0;3235;199;15;311;;17/02/2019;35;3007;2;52;2;0;44;3;12;0;3157;177;12;292
18/02/2019;61;8321;2;495;62;45;98;17;103;0;9204;592;17;827;;18/02/2019;31;4390;1;269;31;28;38;8;55;0;4851;317;8;487;;18/02/2019;30;3931;1;226;31;17;60;9;48;0;4353;274;18;388
19/02/2019;64;8621;3;507;72;56;113;20;99;0;9555;619;17;876;;19/02/2019;26;4525;2;267;34;39;48;12;51;0;5004;330;17;486;;19/02/2019;38;4096;1;240;38;17;65;8;48;0;4551;289;18;414
20/02/2019;64;8478;3;548;65;79;102;16;94;0;9449;606;17;828;;20/02/2019;29;4483;2;286;32;52;45;11;48;0;4988;325;8;478;;20/02/2019;35;3995;1;262;33;27;57;5;46;0;4461;282;18;417
21/02/2019;67;8602;6;543;64;65;106;23;102;0;9578;611;17;878;;21/02/2019;33;4550;2;276;33;43;48;14;54;0;5053;328;8;493;;21/02/2019;34;4052;4;267;31;22;58;9;48;0;4525;282;18;411
22/02/2019;96;8724;9;561;64;48;104;24;102;0;9732;615;17;875;;22/02/2019;45;4607;5;290;25;33;50;16;49;0;5120;327;17;490;;22/02/2019;51;4117;4;271;39;15;54;8;53;0;4612;288;18;400
23/02/2019;41;8335;7;300;18;6;75;7;105;0;8894;537;12;697;;23/02/2019;22;4356;4;149;7;3;33;7;53;0;4634;285;15;378;;23/02/2019;19;3979;3;151;11;3;42;0;52;0;4260;251;18;369
24/02/2019;39;6138;5;137;3;2;45;1;36;0;6406;378;17;565;;24/02/2019;22;3068;3;62;2;1;25;1;17;0;3201;197;15;318;;24/02/2019;17;3070;2;75;1;1;20;0;19;0;3205;181;18;298
25/02/2019;51;8231;1;486;58;40;94;26;100;0;9087;590;17;849;;25/02/2019;32;4333;0;235;30;25;45;17;49;0;4766;315;7;497;;25/02/2019;19;3898;1;251;28;15;49;9;51;0;4321;276;17;402
26/02/2019;75;8328;4;517;56;44;89;32;106;0;9251;596;17;838;;26/02/2019;34;4437;2;266;29;27;36;20;54;0;4905;323;17;485;;26/02/2019;41;3891;2;251;27;17;53;12;52;0;4346;273;18;370
27/02/2019;107;8453;11;542;66;68;101;20;114;0;9482;607;17;857;;27/02/2019;48;4442;6;266;38;43;42;11;59;0;4955;322;8;484;;27/02/2019;59;4011;5;276;28;25;59;9;55;0;4527;285;18;417
28/02/2019;83;8701;5;566;73;53;98;12;111;0;9702;622;18;817;;28/02/2019;46;4570;3;311;39;30;48;6;56;0;5109;334;7;492;;28/02/2019;37;4131;2;255;34;23;50;6;55;0;4593;288;18;407
01/03/2019;67;8999;7;560;68;50;97;24;106;0;9978;629;17;856;;01/03/2019;34;4814;4;301;36;31;43;13;53;0;5329;340;8;497;;01/03/2019;33;4185;3;259;32;19;54;11;53;0;4649;289;18;403
02/03/2019;125;8287;10;278;14;5;75;3;98;0;8895;538;17;691;;02/03/2019;60;4369;3;149;8;2;37;2;51;0;4681;289;17;385;;02/03/2019;65;3918;7;129;6;3;38;1;47;0;4214;249;12;356
03/03/2019;75;6419;2;141;8;1;69;1;31;0;6747;399;17;569;;03/03/2019;38;3259;2;79;2;0;18;1;17;0;3416;212;16;341;;03/03/2019;37;3160;0;62;6;1;51;0;14;0;3331;187;19;291
04/03/2019;65;8287;7;478;74;68;101;20;97;0;9197;592;8;813;;04/03/2019;38;4339;3;246;43;38;45;15;51;0;4818;316;8;508;;04/03/2019;27;3948;4;232;31;30;56;5;46;0;4379;276;18;387
05/03/2019;66;8543;5;556;71;63;97;26;107;0;9534;608;17;836;;05/03/2019;29;4531;2;286;43;37;50;15;54;0;5047;326;7;500;;05/03/2019;37;4012;3;270;28;26;47;11;53;0;4487;282;18;412
06/03/2019;84;8614;7;550;63;76;119;20;103;0;9636;605;17;866;;06/03/2019;38;4448;2;293;34;50;39;12;55;0;4971;320;8;512;;06/03/2019;46;4166;5;257;29;26;80;8;48;0;4665;285;17;425
07/03/2019;96;8678;4;529;58;69;96;24;108;0;9662;619;17;889;;07/03/2019;45;4544;1;281;35;42;48;13;54;0;5063;328;7;504;;07/03/2019;51;4134;3;248;23;27;48;11;54;0;4599;290;17;412
08/03/2019;73;9255;7;537;79;65;111;16;102;0;10245;639;17;902;;08/03/2019;38;4904;4;280;42;36;54;10;51;0;5419;341;7;504;;08/03/2019;35;4351;3;257;37;29;57;6;51;0;4826;298;17;425
09/03/2019;130;8224;6;270;15;4;75;4;96;0;8824;521;17;668;;09/03/2019;77;4270;2;150;5;2;31;2;49;0;4588;281;17;393;;09/03/2019;53;3954;4;120;10;2;44;2;47;0;4236;240;12;316
10/03/2019;68;6192;8;135;6;1;44;1;28;0;6483;378;17;566;;10/03/2019;33;3105;4;72;2;1;21;0;16;0;3254;200;16;304;;10/03/2019;35;3087;4;63;4;0;23;1;12;0;3229;178;18;284
11/03/2019;73;8302;3;490;56;59;85;22;109;0;9199;593;17;815;;11/03/2019;34;4354;0;249;33;31;38;11;56;0;4806;314;8;456;;11/03/2019;39;3948;3;241;23;28;47;11;53;0;4393;278;17;363
12/03/2019;67;8297;2;537;55;62;101;23;109;0;9253;596;18;830;;12/03/2019;33;4397;2;275;28;34;52;13;53;0;4887;320;8;481;;12/03/2019;34;3900;0;262;27;28;49;10;56;0;4366;276;18;407
13/03/2019;42;8428;1;551;42;58;100;20;100;0;9342;597;17;828;;13/03/2019;22;4399;1;288;23;36;45;14;48;0;4876;316;17;451;;13/03/2019;20;4029;0;263;19;22;55;6;52;0;4466;281;18;381
14/03/2019;81;8658;2;504;73;48;81;17;107;0;9571;612;17;841;;14/03/2019;41;4514;2;262;38;31;35;7;53;0;4983;325;8;475;;14/03/2019;40;4144;0;242;35;17;46;10;54;0;4588;287;17;407
15/03/2019;98;8835;10;546;69;54;83;29;102;0;9826;621;17;877;;15/03/2019;49;4657;6;286;37;37;29;17;54;0;5172;332;8;492;;15/03/2019;49;4178;4;260;32;17;54;12;48;0;4654;289;18;398
16/03/2019;172;8258;6;280;13;7;59;5;100;0;8900;537;17;661;;16/03/2019;93;4391;2;149;7;4;14;0;51;0;4711;290;17;374;;16/03/2019;79;3867;4;131;6;3;45;5;49;0;4189;247;12;343
17/03/2019;95;6295;1;141;7;0;44;0;37;0;6620;388;18;604;;17/03/2019;49;3159;0;76;4;0;18;0;20;0;3326;205;18;312;;17/03/2019;46;3136;1;65;3;0;26;0;17;0;3294;183;18;292
18/03/2019;42;8256;3;556;70;53;98;16;100;0;9194;596;17;835;;18/03/2019;24;4402;3;299;35;34;40;9;51;0;4897;323;7;505;;18/03/2019;18;3854;0;257;35;19;58;7;49;0;4297;274;17;366
19/03/2019;65;8432;3;550;59;64;124;22;91;0;9410;609;17;875;;19/03/2019;32;4445;2;300;33;40;51;13;46;0;4962;325;7;485;;19/03/2019;33;3987;1;250;26;24;73;9;45;0;4448;283;18;400
20/03/2019;76;8557;5;595;71;75;103;31;102;0;9615;616;17;897;;20/03/2019;35;4522;3;311;30;45;50;17;54;0;5067;330;17;493;;20/03/2019;41;4035;2;284;41;30;53;14;48;0;4548;286;17;404
21/03/2019;82;8729;1;591;50;55;106;18;107;0;9739;623;17;873;;21/03/2019;39;4576;0;307;27;30;48;13;53;0;5093;333;17;490;;21/03/2019;43;4153;1;284;23;25;58;5;54;0;4646;290;18;415
22/03/2019;122;9136;5;625;58;51;110;32;99;0;10238;650;17;932;;22/03/2019;57;4867;3;322;31;28;49;19;53;0;5429;348;17;498;;22/03/2019;65;4269;2;303;27;23;61;13;46;0;4809;302;17;434
23/03/2019;211;8208;10;276;22;11;91;8;99;0;8936;537;17;691;;23/03/2019;126;4363;4;144;12;6;32;3;53;0;4743;290;17;371;;23/03/2019;85;3845;6;132;10;5;59;5;46;0;4193;247;18;329
24/03/2019;198;6570;5;154;11;1;47;0;30;0;7016;411;12;602;;24/03/2019;103;3323;1;70;7;0;21;0;16;0;3541;218;16;366;;24/03/2019;95;3247;4;84;4;1;26;0;14;0;3475;193;12;347
25/03/2019;129;8528;6;526;60;67;89;27;108;0;9540;614;17;879;;25/03/2019;65;4475;2;278;27;38;39;14;58;0;4996;325;7;496;;25/03/2019;64;4053;4;248;33;29;50;13;50;0;4544;288;17;432
26/03/2019;58;8346;6;524;68;52;81;27;98;0;9260;598;17;858;;26/03/2019;26;4401;2;278;36;32;40;14;47;0;4876;320;7;490;;26/03/2019;32;3945;4;246;32;20;41;13;51;0;4384;278;18;400
27/03/2019;72;8524;4;567;63;61;112;27;106;0;9536;612;17;828;;27/03/2019;40;4523;2;316;34;32;49;11;56;0;5063;331;7;503;;27/03/2019;32;4001;2;251;29;29;63;16;50;0;4473;281;17;378
28/03/2019;72;8801;2;490;67;66;96;17;109;0;9720;620;17;802;;28/03/2019;37;4618;1;259;40;42;46;12;57;0;5112;333;7;488;;28/03/2019;35;4183;1;231;27;24;50;5;52;0;4608;287;17;373
29/03/2019;127;9201;10;512;60;53;108;20;105;0;10196;639;17;906;;29/03/2019;69;4901;4;270;31;40;46;9;56;0;5426;345;8;508;;29/03/2019;58;4300;6;242;29;13;62;11;49;0;4770;294;17;409
30/03/2019;216;8288;8;302;19;8;75;6;100;0;9022;533;17;675;;30/03/2019;111;4378;5;171;9;3;25;4;57;0;4763;287;17;377;;30/03/2019;105;3910;3;131;10;5;50;2;43;0;4259;246;12;345
31/03/2019;139;6006;7;119;6;1;64;0;33;0;6375;366;18;562;;31/03/2019;76;3043;3;50;3;0;23;0;18;0;3216;195;18;285;;31/03/2019;63;2963;4;69;3;1;41;0;15;0;3159;171;19;308
01/04/2019;137;8518;6;532;59;57;87;27;104;0;9527;613;17;826;;01/04/2019;76;4539;3;294;31;36;32;18;54;0;5083;332;7;500;;01/04/2019;61;3979;3;238;28;21;55;9;50;0;4444;281;19;385
02/04/2019;112;8567;5;581;77;48;101;15;105;0;9611;618;18;890;;02/04/2019;60;4481;3;314;42;30;49;11;55;0;5045;331;8;481;;02/04/2019;52;4086;2;267;35;18;52;4;50;0;4566;287;17;423
03/04/2019;58;8813;9;567;59;71;120;24;107;0;9828;627;17;890;;03/04/2019;30;4658;4;305;30;37;52;11;56;0;5183;337;8;528;;03/04/2019;28;4155;5;262;29;34;68;13;51;0;4645;290;17;397
04/04/2019;26;8567;8;547;49;72;94;24;102;0;9489;611;7;809;;04/04/2019;11;4509;5;295;27;42;35;13;50;0;4987;328;8;512;;04/04/2019;15;4058;3;252;22;30;59;11;52;0;4502;283;17;372
05/04/2019;51;8984;3;523;62;56;111;25;104;0;9919;620;17;842;;05/04/2019;23;4817;1;283;33;36;47;19;51;0;5310;337;8;512;;05/04/2019;28;4167;2;240;29;20;64;6;53;0;4609;283;18;412
06/04/2019;134;8459;3;316;17;9;82;4;99;0;9123;545;18;671;;06/04/2019;71;4442;3;157;9;4;31;1;55;0;4773;292;16;374;;06/04/2019;63;4017;0;159;8;5;51;3;44;0;4350;253;12;345
07/04/2019;40;6404;1;129;9;0;72;2;28;0;6685;385;17;571;;07/04/2019;16;3206;1;71;6;0;27;2;14;0;3343;204;15;309;;07/04/2019;24;3198;0;58;3;0;45;0;14;0;3342;182;12;312
08/04/2019;82;8727;6;550;50;68;77;21;104;0;9685;623;7;836;;08/04/2019;40;4667;2;303;22;38;40;11;53;0;5176;340;7;522;;08/04/2019;42;4060;4;247;28;30;37;10;51;0;4509;283;18;413
09/04/2019;104;8735;3;581;70;55;105;22;102;0;9777;628;18;860;;09/04/2019;52;4654;3;310;33;38;43;15;54;0;5202;340;7;497;;09/04/2019;52;4081;0;271;37;17;62;7;48;0;4575;287;18;411
10/04/2019;79;8829;1;591;76;70;110;25;110;0;9891;633;17;900;;10/04/2019;47;4668;1;313;34;38;45;15;57;0;5218;340;7;529;;10/04/2019;32;4161;0;278;42;32;65;10;53;0;4673;292;17;416
11/04/2019;69;8846;6;565;74;65;99;24;92;0;9840;630;17;854;;11/04/2019;34;4690;3;295;44;41;41;17;47;0;5212;340;8;515;;11/04/2019;35;4156;3;270;30;24;58;7;45;0;4628;290;18;411
12/04/2019;77;9308;4;637;53;63;125;22;100;0;10389;653;18;862;;12/04/2019;45;4967;3;336;28;40;54;15;50;0;5538;351;7;513;;12/04/2019;32;4341;1;301;25;23;71;7;50;0;4851;302;18;433
13/04/2019;110;8333;6;285;11;10;94;7;95;0;8951;534;12;661;;13/04/2019;48;4341;2;155;5;5;39;6;50;0;4651;282;10;358;;13/04/2019;62;3992;4;130;6;5;55;1;45;0;4300;252;12;358
14/04/2019;35;6065;4;91;8;1;48;0;33;0;6285;358;12;536;;14/04/2019;15;3044;1;50;3;1;19;0;17;0;3150;189;16;300;;14/04/2019;20;3021;3;41;5;0;29;0;16;0;3135;169;19;303
15/04/2019;112;9046;3;576;75;58;108;22;117;0;10117;648;17;877;;15/04/2019;57;4772;2;309;38;32;51;11;60;0;5332;347;8;514;;15/04/2019;55;4274;1;267;37;26;57;11;57;0;4785;300;18;442
16/04/2019;134;9279;4;561;69;67;115;27;105;0;10361;665;18;924;;16/04/2019;65;4866;1;298;34;43;49;18;55;0;5429;355;7;534;;16/04/2019;69;4413;3;263;35;24;66;9;50;0;4932;310;18;453
17/04/2019;168;9530;6;622;86;65;142;29;109;0;10757;678;18;1018;;17/04/2019;94;4963;3;318;49;38;63;13;57;0;5598;360;17;507;;17/04/2019;74;4567;3;304;37;27;79;16;52;0;5159;319;18;524
18/04/2019;205;8929;6;581;73;67;105;24;103;0;10093;632;17;869;;18/04/2019;117;4702;4;320;41;44;40;14;51;0;5333;341;8;476;;18/04/2019;88;4227;2;261;32;23;65;10;52;0;4760;291;18;436
19/04/2019;188;9150;6;478;52;44;97;17;101;0;10133;630;17;915;;19/04/2019;108;4882;4;255;28;29;45;11;52;0;5414;341;17;483;;19/04/2019;80;4268;2;223;24;15;52;6;49;0;4719;290;18;440
20/04/2019;217;8368;13;240;17;9;100;6;94;0;9064;535;18;701;;20/04/2019;102;4387;8;129;10;4;37;4;48;0;4729;285;9;400;;20/04/2019;115;3981;5;111;7;5;63;2;46;0;4335;250;18;341
21/04/2019;91;5449;2;93;6;0;57;2;17;0;5717;320;12;623;;21/04/2019;51;2753;1;42;3;0;22;1;10;0;2883;165;12;306;;21/04/2019;40;2696;1;51;3;0;35;1;7;0;2834;155;12;317
22/04/2019;81;5308;5;122;6;3;35;1;32;0;5593;330;18;486;;22/04/2019;42;2699;3;64;3;1;15;0;16;0;2843;175;11;280;;22/04/2019;39;2609;2;58;3;2;20;1;16;0;2750;155;18;256
23/04/2019;37;8496;2;511;60;72;78;30;106;0;9392;598;17;871;;23/04/2019;14;4497;0;279;33;46;30;14;51;0;4964;322;17;474;;23/04/2019;23;3999;2;232;27;26;48;16;55;0;4428;276;17;397
24/04/2019;136;8780;5;584;38;68;90;14;102;0;9817;613;18;875;;24/04/2019;64;4691;4;310;19;40;37;10;50;0;5225;329;17;465;;24/04/2019;72;4089;1;274;19;28;53;4;52;0;4592;283;18;447
25/04/2019;197;5920;5;146;11;3;61;1;26;0;6370;367;16;515;;25/04/2019;115;3038;3;74;7;0;28;1;13;0;3279;196;16;304;;25/04/2019;82;2882;2;72;4;3;33;0;13;0;3091;171;18;253
26/04/2019;100;8580;7;466;41;54;94;10;97;0;9449;592;17;712;;26/04/2019;63;4521;3;253;24;38;39;9;53;0;5003;318;8;440;;26/04/2019;37;4059;4;213;17;16;55;1;44;0;4446;274;18;372
27/04/2019;174;7861;9;269;14;5;68;2;95;0;8497;506;10;657;;27/04/2019;91;4125;5;137;7;4;24;1;48;0;4442;269;10;358;;27/04/2019;83;3736;4;132;7;1;44;1;47;0;4055;236;18;327
28/04/2019;73;6467;4;127;3;2;74;0;29;0;6779;388;16;574;;28/04/2019;35;3157;1;59;1;2;28;0;15;0;3298;198;16;320;;28/04/2019;38;3310;3;68;2;0;46;0;14;0;3481;191;19;343
29/04/2019;66;8672;4;533;49;59;102;31;96;0;9612;618;17;861;;29/04/2019;33;4612;3;283;24;38;35;14;53;0;5095;334;8;484;;29/04/2019;33;4060;1;250;25;21;67;17;43;0;4517;284;17;433
30/04/2019;142;9122;8;585;61;53;117;38;104;0;10230;642;17;917;;30/04/2019;73;4871;3;314;32;31;42;23;55;0;5444;346;17;494;;30/04/2019;69;4251;5;271;29;22;75;15;49;0;4786;295;17;423
01/05/2019;154;5579;3;154;8;3;46;3;21;0;5971;341;18;497;;01/05/2019;96;2830;2;84;4;2;23;1;12;0;3054;182;16;286;;01/05/2019;58;2749;1;70;4;1;23;2;9;0;2917;159;18;248
02/05/2019;164;8892;8;573;67;61;108;30;107;0;10010;638;17;936;;02/05/2019;87;4729;4;290;34;35;37;14;57;0;5287;344;8;508;;02/05/2019;77;4163;4;283;33;26;71;16;50;0;4723;294;17;451